DateTimeUTC,F1_A11,F1_S11,BsB_S11,BsG_S11,BsR_S11,BbsB_S11,BbsG_S11,BbsR_S11,BaB_A11,BaG_A11,BaR_A11,Tu_S11,T_S11,Uu_S11,U_S11,P_S11,T1_A11
2021-08-10T14:00:00Z,00040200,20000000,,,,,,,0000.21,0000.25,0000.36,18.7,25.2,03.6,02.4,0674.7,31.0
2021-08-10T14:01:00Z,00040200,20000000,,,,,,,-000.13,0000.26,-000.16,18.7,25.2,03.6,02.4,0674.7,31.0
2021-08-10T14:02:00Z,00040200,20000000,,,,,,,0000.14,0000.15,0000.18,18.7,25.2,03.6,02.4,0674.7,31.0
2021-08-10T14:03:00Z,00040200,60000000,,,,,,,0000.61,0000.38,0000.26,18.7,25.2,03.6,02.4,0674.7,31.0
2021-08-10T14:04:00Z,00040200,40000000,0000.91,0000.46,0000.79,0000.44,0000.38,-000.12,0000.02,0000.26,0000.27,18.8,25.0,03.8,02.6,0675.7,31.0
2021-08-10T14:05:00Z,00040200,00000000,0001.20,0001.10,0000.88,0001.07,0000.21,0000.30,0000.46,0000.54,0000.44,18.8,25.0,03.9,02.7,0675.8,31.0
2021-08-10T14:06:00Z,00040200,00000000,0001.60,0000.96,0000.66,0000.76,-000.05,0000.31,-000.19,-000.01,-000.29,18.8,25.0,04.0,02.7,0675.8,31.0
2021-08-10T14:07:00Z,00040200,00000000,0000.76,0000.82,0000.74,0000.56,0000.06,0000.06,0000.18,-000.42,0000.51,18.8,25.0,04.0,02.8,0675.8,31.0
2021-08-10T14:08:00Z,00040200,00000000,0001.08,0000.42,0000.93,0000.32,-000.04,0000.16,0000.08,0000.45,0000.29,18.8,25.0,04.0,02.7,0675.8,31.0
2021-08-10T14:09:00Z,00040200,00000000,0001.35,0000.71,0000.78,0000.39,-000.01,0000.06,0000.38,0000.24,0000.22,18.8,25.0,04.0,02.7,0675.8,31.0
2021-08-10T14:10:00Z,00040200,00000000,0000.79,0000.66,0000.58,0000.87,-000.19,0000.14,0000.49,0000.54,0000.17,18.8,25.0,04.1,02.8,0675.8,31.0
2021-08-10T14:11:00Z,00040200,00000000,0000.81,0000.65,0000.84,0000.77,0000.20,0000.26,0000.31,-000.04,0000.56,18.8,25.0,04.1,02.8,0675.8,31.0
2021-08-10T14:12:00Z,00040200,00000000,0000.47,0000.66,0000.74,0000.38,0000.07,0000.27,0000.25,0000.36,-000.09,18.8,24.9,04.2,02.9,0675.8,31.0
2021-08-10T14:13:00Z,00040200,00000000,0000.51,0000.78,0000.41,0001.06,-000.03,0000.36,0000.18,0000.17,0000.72,18.7,25.0,04.2,02.9,0675.8,31.0
2021-08-10T14:14:00Z,00040200,00000000,0000.43,0000.45,0000.57,0000.54,-000.22,0000.02,0000.40,0000.37,-000.03,18.8,24.9,04.2,02.9,0675.8,31.0
2021-08-10T14:15:00Z,00040200,00000000,0000.59,0001.09,0000.85,0000.30,-000.16,0000.47,0000.35,0000.48,0000.45,18.8,24.9,04.4,03.0,0675.8,31.0
2021-08-10T14:16:00Z,00040200,00000000,0001.06,0000.69,0000.90,0001.09,0000.20,0000.11,0000.37,0000.32,-000.09,18.8,24.9,04.4,03.0,0675.8,31.0
2021-08-10T14:17:00Z,00040200,00000000,0000.87,0000.77,0000.86,0000.44,0000.31,0000.37,-000.10,0000.19,0000.11,18.8,24.9,04.3,03.0,0675.8,31.0
2021-08-10T14:18:00Z,00040200,00000000,0000.77,0000.48,0000.68,0000.82,0000.01,0000.06,0000.22,-000.08,-000.06,18.7,24.9,04.3,02.9,0675.8,31.0
2021-08-10T14:19:00Z,00040200,00000000,0000.95,0000.42,0000.92,0000.68,0000.16,-000.02,-000.04,0000.03,-000.15,18.7,24.9,04.3,02.9,0675.8,31.0
2021-08-10T14:20:00Z,00040200,00000000,0001.05,0000.62,0000.71,0000.36,0000.25,0000.01,0000.38,0000.63,0000.60,18.8,24.9,04.3,03.0,0675.8,31.0
2021-08-10T14:21:00Z,00040200,00000000,0000.99,0000.78,0000.62,0000.37,0000.18,0000.12,0000.81,0000.14,0000.37,18.7,24.9,04.4,03.0,0675.8,31.0
2021-08-10T14:22:00Z,00040200,00000000,0001.04,0000.81,0000.82,0000.76,0000.19,0000.19,-000.12,0000.31,0000.31,18.8,24.9,04.4,03.0,0675.8,31.0
2021-08-10T14:23:00Z,00040200,00000000,0001.26,0000.65,0001.00,0000.49,0000.13,0000.53,0000.20,-000.00,0000.23,18.8,24.9,04.4,03.0,0675.8,31.0
2021-08-10T14:24:00Z,00040200,00000000,0001.53,0000.96,0001.04,0000.89,0000.23,0000.35,0000.60,0000.50,0000.56,18.8,24.9,04.5,03.1,0675.8,31.0
2021-08-10T14:25:00Z,00040200,00000000,0000.87,0000.96,0000.81,0000.29,0000.12,0000.08,0000.50,0000.44,0000.09,18.8,24.9,04.5,03.1,0675.8,31.0
2021-08-10T14:26:00Z,00040200,00000000,0001.40,0000.91,0000.68,0001.13,-000.20,0000.09,-000.33,0000.07,0000.23,18.8,24.9,04.6,03.1,0675.8,31.0
2021-08-10T14:27:00Z,00040200,00000000,0000.20,0000.80,0000.81,0000.14,-000.01,0000.15,0000.80,0000.39,-000.01,18.8,24.9,04.6,03.1,0675.8,31.0
2021-08-10T14:28:00Z,00040200,00000000,0001.29,0000.92,0000.92,0000.12,0000.11,-000.12,0000.21,0000.33,0000.72,18.8,24.9,04.6,03.2,0675.8,31.0
2021-08-10T14:29:00Z,00040200,00000000,0001.62,0001.21,0000.64,0000.54,-000.12,0000.23,0000.31,0000.10,-000.03,18.8,24.9,04.6,03.2,0675.8,31.0
2021-08-10T14:30:00Z,00040200,00000000,0001.80,0000.80,0000.90,0000.44,0000.16,-000.10,0000.10,0000.40,0000.47,18.8,24.9,04.7,03.2,0675.8,31.0
2021-08-10T14:31:00Z,00040200,00000000,0001.64,0000.97,0001.03,0001.17,0000.33,0000.00,0000.12,0000.23,-000.26,18.8,24.9,04.7,03.2,0675.8,31.0
2021-08-10T14:32:00Z,00040200,00000000,0001.58,0001.22,0000.87,0001.08,-000.08,-000.03,0000.40,0000.02,0000.42,18.8,24.9,04.7,03.2,0675.8,31.0
2021-08-10T14:33:00Z,00040200,00000000,0000.93,0000.72,0000.78,0000.49,0000.05,0000.00,0000.28,0000.48,0000.32,18.8,24.9,04.7,03.2,0675.8,31.0
2021-08-10T14:34:00Z,00040200,00000000,0001.70,0000.90,0000.77,0000.52,0000.16,-000.02,0000.06,-000.06,-000.11,18.8,24.9,04.8,03.3,0675.8,31.0
2021-08-10T14:35:00Z,00040200,00000000,0000.71,0001.30,0000.86,0000.41,-000.06,0000.17,0000.31,0000.18,0000.18,18.8,24.9,04.8,03.3,0675.8,31.0
2021-08-10T14:36:00Z,00040200,00000000,0001.48,0001.23,0000.82,0000.74,0000.28,0000.09,0000.47,0000.48,0000.60,18.8,24.9,04.8,03.3,0675.8,31.0
2021-08-10T14:37:00Z,00040200,00000000,0001.09,0000.79,0000.88,0001.02,0000.15,0000.19,0000.10,0000.32,0000.40,18.8,24.9,04.9,03.4,0675.8,31.0
2021-08-10T14:38:00Z,00040200,00000000,0000.84,0000.82,0000.57,0000.79,0000.21,0000.05,0000.52,0000.26,0000.06,18.8,24.9,04.8,03.3,0675.8,31.0
2021-08-10T14:39:00Z,00040200,00000000,0000.83,0001.27,0000.92,0000.12,0000.06,-000.05,0000.08,0000.19,0000.53,18.9,24.9,04.8,03.3,0675.8,31.0
2021-08-10T14:40:00Z,00040200,00000000,0001.05,0000.98,0000.83,0000.99,0000.14,0000.33,0000.23,0000.16,-000.23,18.9,25.0,04.8,03.3,0675.8,31.0
2021-08-10T14:41:00Z,00040200,00000000,0001.17,0000.98,0000.79,0000.11,0000.13,0000.29,0000.56,0000.68,0000.61,18.9,25.0,04.8,03.3,0675.8,31.0
2021-08-10T14:42:00Z,00040200,00000000,0001.49,0000.89,0000.64,0000.36,0000.26,-000.20,0000.09,-000.19,0000.15,18.9,25.0,04.9,03.3,0675.8,31.0
2021-08-10T14:43:00Z,00040200,00000000,0001.06,0000.78,0000.96,0000.58,0000.08,0000.45,-000.12,0000.44,-000.22,18.9,25.0,04.8,03.3,0675.8,31.0
2021-08-10T14:44:00Z,00040200,00000000,0001.25,0001.00,0001.13,0000.55,-000.00,0000.19,0000.52,0000.33,0000.28,18.9,25.0,04.8,03.3,0675.8,31.0
2021-08-10T14:45:00Z,00040200,00000000,0001.15,0000.98,0000.91,0000.34,0000.24,-000.12,0000.61,0000.14,0000.76,18.9,25.0,04.9,03.4,0675.8,31.0
2021-08-10T14:46:00Z,00040200,00000000,0001.79,0000.44,0001.12,0000.09,0000.17,0000.18,-000.01,0000.23,0000.17,18.9,25.0,04.8,03.3,0675.8,31.0
2021-08-10T14:47:00Z,00040200,00000000,0001.39,0000.89,0000.71,0000.50,0000.15,0000.01,-000.22,-000.27,0000.03,18.9,25.0,04.8,03.3,0675.8,31.0
2021-08-10T14:48:00Z,00040200,00010000,0000.93,0000.79,0000.58,0001.01,0000.08,0000.00,0000.40,0000.32,0000.04,18.9,25.0,04.8,03.3,0675.8,31.0
2021-08-10T14:49:00Z,00040200,00000000,0000.58,0000.89,0000.73,0000.59,0000.08,0000.20,-000.37,0000.00,-000.17,18.9,25.0,04.7,03.2,0675.8,31.0
2021-08-10T14:50:00Z,00040200,00000000,0000.97,0000.97,0000.82,0000.18,0000.16,0000.20,0000.40,0000.50,0000.03,18.9,25.0,04.7,03.3,0675.8,31.1
2021-08-10T14:51:00Z,00040200,00000000,0001.46,0000.93,0001.11,0000.99,-000.16,0000.19,0000.50,-000.10,0000.13,18.9,25.0,04.7,03.2,0675.8,31.0
2021-08-10T14:52:00Z,00040200,00000000,0001.02,0001.26,0001.05,0000.82,0000.10,0000.56,-000.01,0000.20,0000.52,18.9,25.0,04.8,03.3,0675.8,31.0
2021-08-10T14:53:00Z,00040200,00000000,0000.76,0000.86,0000.57,0000.41,-000.30,-000.08,0000.42,0000.62,0000.17,18.9,25.0,04.7,03.2,0675.8,31.0
2021-08-10T14:54:00Z,00040200,00000000,0001.34,0000.99,0001.20,0000.66,0000.39,0000.07,-000.18,-000.47,-000.09,18.9,25.0,04.7,03.3,0675.8,31.0
2021-08-10T14:55:00Z,00040200,00000000,0001.37,0000.81,0000.83,0000.57,0000.03,0000.26,0000.33,0000.48,-000.10,18.9,25.0,04.7,03.2,0675.9,31.0
2021-08-10T14:56:00Z,00040200,00000000,0002.13,0001.12,0001.11,0000.52,0000.05,0000.06,-000.02,-000.09,0000.54,18.9,25.0,04.6,03.2,0675.9,31.0
2021-08-10T14:57:00Z,00040200,40000000,,,,,,,0000.27,-000.02,-000.19,18.9,25.1,04.7,03.2,0675.9,31.0
2021-08-10T14:58:00Z,00040200,60000000,,,,,,,0000.04,0000.41,0000.10,18.7,25.1,04.5,03.0,0674.9,31.0
2021-08-10T14:59:00Z,00040200,20000000,,,,,,,-000.29,-000.19,-000.05,18.7,25.2,04.5,03.0,0674.8,31.0
